Location: Charlotte
(35.2269°N, 80.8433°W)
Time: 12:05:06

ISS - Visible Passes

Search period start: 22 October 2016 00:00
Search period end: 01 November 2016 00:00
Orbit: 399 x 409 km, 51.6° (Epoch: 22 October)

Date Brightness Start Highest point End Pass type
(mag) Time Alt. Az. Time Alt. Az. Time Alt. Az.
22 Oct -0.8 19:08:50 10° WNW 19:11:32 24° SW 19:14:12 10° S visible
30 Oct -1.3 07:15:32 10° SSW 07:18:29 32° SE 07:21:27 10° ENE visible
31 Oct -0.3 06:24:07 10° SSE 06:26:10 16° SE 06:28:13 10° E visible
